Location: Ferintosh
(52.7647°N, 112.9692°W)
Time: 19:46:47
(UTC+00:00)

A-11 Canister half - Pass Details

Date: 27 May 2024
Orbit: 1515 x 1685 km, 47.2° (Epoch: 12 June)

Event Time Altitude Azimuth Distance (km) Brightness Sun altitude
Rises 13:15:21 0° 279° (W) 4,718 11.0 14.9°
Reaches altitude 10° 13:18:33 10° 274° (W) 3,716 10.5 15.4°
Maximum altitude 13:27:19 48° 205° (SSW) 1,918 9.5 16.6°
Drops below altitude 10° 13:35:58 10° 135° (SE) 3,671 11.5 17.9°
Sets 13:39:07 0° 130° (SE) 4,658 12.1 18.4°
